BAW492 EGLL-LXGB

Flight info

Callsign BAW492
Flight time N/A
Altitude 37000
Route GASGU N866 SAM M195 MARUK N621 LELNA DCT ERCOZ DCT NOVAN DCT DELOG DCT CRISA DCT VULPE DCT MAR N864 PIMOS
Aircraft A320/M-SDE3FGHIRWY/LB1

Departure

Time 2026-04-30 11:32
Airport London Heathrow Airport (EGLL)

Arrival

Time N/A
Airport Gibraltar Airport (LXGB)
Time Latitude Longitude Altitude Speed Heading
2026-04-30 11:10 51.47217 -0.46244 88 ft 0 kts 56°
2026-04-30 11:21 51.47208 -0.46263 89 ft 4 kts 56°
2026-04-30 11:21 51.47194 -0.46298 91 ft 2 kts 56°
2026-04-30 11:21 51.47180 -0.46325 91 ft 4 kts 30°
2026-04-30 11:22 51.47156 -0.46333 89 ft 4 kts 337°
2026-04-30 11:22 51.47138 -0.46316 90 ft 1 kts 326°
2026-04-30 11:22 51.47137 -0.46315 90 ft 0 kts 326°
2026-04-30 11:24 51.47142 -0.46320 87 ft 4 kts 326°
2026-04-30 11:25 51.47241 -0.46464 89 ft 11 kts 276°
2026-04-30 11:25 51.47238 -0.46594 87 ft 12 kts 269°
2026-04-30 11:25 51.47206 -0.46864 88 ft 14 kts 193°
2026-04-30 11:26 51.46995 -0.46866 87 ft 17 kts 179°
2026-04-30 11:26 51.46873 -0.46865 87 ft 18 kts 179°
2026-04-30 11:26 51.46742 -0.46864 89 ft 19 kts 179°
2026-04-30 11:27 51.46659 -0.46917 87 ft 14 kts 251°
2026-04-30 11:27 51.46657 -0.47024 90 ft 10 kts 270°
2026-04-30 11:27 51.46656 -0.47146 90 ft 12 kts 267°
2026-04-30 11:27 51.46655 -0.47284 87 ft 13 kts 269°
2026-04-30 11:28 51.46654 -0.47602 86 ft 15 kts 270°
2026-04-30 11:28 51.46653 -0.47779 86 ft 16 kts 270°
2026-04-30 11:28 51.46652 -0.47945 87 ft 11 kts 269°
2026-04-30 11:29 51.46652 -0.48066 87 ft 9 kts 270°
2026-04-30 11:29 51.46652 -0.48080 87 ft 0 kts 270°
2026-04-30 11:30 51.46652 -0.48111 87 ft 5 kts 270°
2026-04-30 11:30 51.46649 -0.48188 88 ft 8 kts 254°
2026-04-30 11:30 51.46591 -0.48217 87 ft 11 kts 180°
2026-04-30 11:31 51.46509 -0.48216 88 ft 13 kts 179°
2026-04-30 11:31 51.46478 -0.48174 88 ft 1 kts 95°
2026-04-30 11:31 51.46476 -0.48048 87 ft 37 kts 90°
2026-04-30 11:31 51.46481 -0.47282 87 ft 98 kts 89°
2026-04-30 11:32 51.46485 -0.45928 89 ft 144 kts 90°
2026-04-30 11:32 51.46493 -0.44218 472 ft 154 kts 91°
2026-04-30 11:32 51.46495 -0.42477 1079 ft 158 kts 92°
2026-04-30 11:33 51.45351 -0.39008 1407 ft 207 kts 123°
2026-04-30 11:33 51.44478 -0.37009 1676 ft 230 kts 123°
2026-04-30 11:33 51.43518 -0.34935 2301 ft 242 kts 131°
2026-04-30 11:33 51.42118 -0.33376 3445 ft 244 kts 153°
2026-04-30 11:34 51.41600 -0.33072 3813 ft 244 kts 160°
2026-04-30 11:34 51.40672 -0.32773 4084 ft 260 kts 174°
2026-04-30 11:35 51.39889 -0.32911 3887 ft 289 kts 193°
2026-04-30 11:35 51.37992 -0.34271 4665 ft 301 kts 206°
2026-04-30 11:35 51.36380 -0.36328 6063 ft 287 kts 216°
2026-04-30 11:35 51.34963 -0.38455 7385 ft 279 kts 225°
2026-04-30 11:36 51.33840 -0.41042 8250 ft 286 kts 233°
2026-04-30 11:36 51.32770 -0.43750 9114 ft 290 kts 233°
2026-04-30 11:36 51.31678 -0.46488 9934 ft 294 kts 233°
2026-04-30 11:36 51.30637 -0.49072 10517 ft 304 kts 232°
2026-04-30 11:37 51.29441 -0.52021 10689 ft 328 kts 233°
2026-04-30 11:37 51.28165 -0.55172 11092 ft 343 kts 233°
2026-04-30 11:37 51.26859 -0.58393 11759 ft 349 kts 233°
2026-04-30 11:37 51.25536 -0.61657 12488 ft 352 kts 233°
2026-04-30 11:38 51.24200 -0.64965 13220 ft 356 kts 233°
2026-04-30 11:38 51.22850 -0.68297 13958 ft 360 kts 233°
2026-04-30 11:38 51.21477 -0.71660 14637 ft 363 kts 233°
2026-04-30 11:38 51.20096 -0.75042 15097 ft 365 kts 233°
2026-04-30 11:39 51.18705 -0.78438 15203 ft 365 kts 233°
2026-04-30 11:39 51.17308 -0.81836 15512 ft 367 kts 233°